EZY61G EGKK-LFRS

Flight info

Callsign EZY61G
Flight time N/A
Altitude 27000
Route NOVMA L620 SAM M195 IBNID/N0457F290 M195 MARUK N621 LELNA DCT DOMOK UT260 UPALO UN862 GODAN
Aircraft A320/M-SDE3FGHIRWY/LB1

Departure

Time 2026-04-17 00:22
Airport London Gatwick Airport (EGKK)

Arrival

Time N/A
Airport Nantes Atlantique Airport (LFRS)
Time Latitude Longitude Altitude Speed Heading
2026-04-17 00:01 51.15569 -0.17750 210 ft 0 kts 348°
2026-04-17 00:13 51.15557 -0.17746 214 ft 2 kts 348°
2026-04-17 00:13 51.15540 -0.17741 209 ft 2 kts 348°
2026-04-17 00:14 51.15524 -0.17739 208 ft 2 kts 334°
2026-04-17 00:14 51.15512 -0.17720 213 ft 2 kts 263°
2026-04-17 00:14 51.15512 -0.17716 212 ft 0 kts 257°
2026-04-17 00:16 51.15511 -0.17728 205 ft 5 kts 257°
2026-04-17 00:16 51.15502 -0.17789 206 ft 9 kts 257°
2026-04-17 00:16 51.15485 -0.17910 211 ft 12 kts 258°
2026-04-17 00:17 51.15468 -0.18035 205 ft 11 kts 258°
2026-04-17 00:17 51.15447 -0.18139 205 ft 7 kts 220°
2026-04-17 00:17 51.15396 -0.18148 205 ft 7 kts 175°
2026-04-17 00:17 51.15355 -0.18134 212 ft 6 kts 166°
2026-04-17 00:18 51.15281 -0.18106 209 ft 16 kts 168°
2026-04-17 00:18 51.15222 -0.18035 209 ft 10 kts 97°
2026-04-17 00:18 51.15235 -0.17930 215 ft 10 kts 76°
2026-04-17 00:18 51.15261 -0.17752 210 ft 19 kts 78°
2026-04-17 00:19 51.15291 -0.17526 211 ft 22 kts 78°
2026-04-17 00:19 51.15301 -0.17363 210 ft 7 kts 116°
2026-04-17 00:19 51.15222 -0.17290 209 ft 21 kts 146°
2026-04-17 00:19 51.15181 -0.17238 209 ft 0 kts 139°
2026-04-17 00:20 51.15180 -0.17238 209 ft 0 kts 139°
2026-04-17 00:20 51.15176 -0.17232 209 ft 1 kts 139°
2026-04-17 00:20 51.15149 -0.17184 205 ft 10 kts 130°
2026-04-17 00:20 51.15089 -0.17155 207 ft 11 kts 206°
2026-04-17 00:21 51.15053 -0.17274 209 ft 4 kts 257°
2026-04-17 00:21 51.15053 -0.17275 209 ft 0 kts 257°
2026-04-17 00:21 51.15027 -0.17458 211 ft 53 kts 257°
2026-04-17 00:21 51.14893 -0.18429 204 ft 123 kts 257°
2026-04-17 00:22 51.14520 -0.21094 961 ft 153 kts 257°
2026-04-17 00:22 51.14227 -0.23300 1906 ft 154 kts 258°
2026-04-17 00:22 51.14085 -0.24426 2379 ft 153 kts 259°
2026-04-17 00:23 51.13826 -0.26628 3284 ft 152 kts 260°
2026-04-17 00:23 51.13645 -0.28280 3951 ft 151 kts 261°
2026-04-17 00:23 51.13527 -0.29393 4375 ft 152 kts 258°
2026-04-17 00:23 51.13187 -0.31730 4879 ft 178 kts 256°
2026-04-17 00:24 51.12977 -0.33079 5090 ft 193 kts 256°
2026-04-17 00:24 51.12638 -0.35298 5392 ft 219 kts 257°
2026-04-17 00:24 51.12266 -0.37792 5832 ft 244 kts 257°
2026-04-17 00:24 51.11868 -0.40510 6338 ft 266 kts 257°
2026-04-17 00:25 51.11363 -0.43389 7151 ft 274 kts 246°
2026-04-17 00:25 51.10513 -0.46137 8083 ft 278 kts 243°
2026-04-17 00:25 51.09630 -0.48946 9027 ft 282 kts 243°
2026-04-17 00:25 51.08749 -0.51755 9926 ft 286 kts 244°
2026-04-17 00:26 51.07858 -0.54598 10809 ft 290 kts 244°
2026-04-17 00:26 51.06950 -0.57500 11663 ft 294 kts 244°
2026-04-17 00:26 51.06037 -0.60429 12506 ft 297 kts 244°
2026-04-17 00:26 51.05267 -0.63498 13313 ft 301 kts 255°
2026-04-17 00:27 51.04820 -0.66723 14071 ft 305 kts 258°
2026-04-17 00:27 51.04379 -0.70039 14853 ft 309 kts 258°
2026-04-17 00:27 51.03930 -0.73394 15600 ft 312 kts 258°
2026-04-17 00:27 51.03472 -0.76794 16266 ft 320 kts 258°
2026-04-17 00:28 51.02990 -0.80364 16425 ft 342 kts 258°
2026-04-17 00:28 51.02472 -0.84167 16653 ft 360 kts 258°
2026-04-17 00:28 51.01932 -0.88109 17198 ft 368 kts 258°
2026-04-17 00:28 51.01380 -0.92151 17842 ft 372 kts 258°
2026-04-17 00:29 51.00829 -0.96184 18486 ft 375 kts 258°
2026-04-17 00:29 51.00273 -1.00255 19090 ft 379 kts 258°
2026-04-17 00:29 50.99718 -1.04306 19679 ft 383 kts 258°
2026-04-17 00:29 50.99148 -1.08457 20266 ft 386 kts 258°
2026-04-17 00:30 50.98574 -1.12640 20841 ft 389 kts 258°
2026-04-17 00:30 50.97991 -1.16857 21391 ft 393 kts 257°
2026-04-17 00:30 50.97398 -1.21098 21933 ft 396 kts 257°